EW9060 Weather Reports


time (UTC)temp
C
wind
direction
speed
KPH
gust
KPH
rain 1hr
cm
rain 24hr
cm
rain mn
cm
humidity
%
barometer
mb
20260901051508 16 159 6.4 20.9 0.00 0.00 0.00 73 1012.7
20260901050008 16 197 8.0 27.4 0.00 0.00 0.00 73 1012.6
20260901044508 16 157 9.7 29.0 0.00 0.00 0.00 72 1012.6
20260901043005 16 173 8.0 24.1 0.00 0.00 0.00 72 1012.5
20260901041505 17 153 9.7 30.6 0.00 0.00 0.00 72 1012.4
20260901040012 17 150 8.0 25.7 0.00 0.00 0.00 71 1012.2
20260901034504 17 197 6.4 20.9 0.00 0.00 0.00 70 1012.0
20260901033003 17 138 9.7 29.0 0.00 0.00 0.00 69 1011.8
20260901031504 17 169 9.7 24.1 0.00 0.00 0.00 68 1011.7
20260901030003 18 269 3.2 19.3 0.00 0.00 0.00 67 1011.5
20260901024501 18 155 9.7 30.6 0.00 0.00 0.00 65 1011.4
20260901023000 19 153 4.8 24.1 0.00 0.00 0.00 64 1011.3
20260901021600 20 11 4.8 20.9 0.00 0.00 0.00 62 1011.3
20260901014602 21 49 12.9 29.0 0.00 0.00 0.00 58 1011.3
20260901013059 22 16 8.0 22.5 0.00 0.00 0.00 55 1011.2
20260901011605 22 16 11.3 35.4 0.00 0.00 0.00 51 1011.2
20260901010058 23 249 4.8 25.7 0.00 0.00 0.00 49 1011.1
20260901004603 23 176 9.7 22.5 0.00 0.00 0.00 49 1011.1
20260901003100 24 173 12.9 25.7 0.00 0.00 0.00 49 1011.2
20260901001555 25 190 8.0 24.1 0.00 0.00 0.00 48 1011.2
20260901000055 25 149 6.4 19.3 0.00 0.00 0.00 49 1011.1
20260831234554 25 92 6.4 25.7 0.00 0.00 0.00 49 1011.3
20260831233054 25 134 6.4 25.7 0.00 0.00 0.00 49 1011.4
20260831231559 25 202 8.0 20.9 0.00 0.00 0.00 48 1011.5
20260831230055 25 125 4.8 19.3 0.00 0.00 0.00 47 1011.6
20260831224552 25 146 8.0 19.3 0.00 0.00 0.00 46 1011.8
20260831223052 25 198 8.0 25.7 0.00 0.00 0.00 46 1011.9
20260831221551 25 271 8.0 27.4 0.00 0.00 0.00 46 1012.2
20260831220051 25 205 3.2 22.5 0.00 0.00 0.00 46 1012.3
20260831214617 25 157 4.8 19.3 0.00 0.00 0.00 47 1012.4
20260831213046 24 146 9.7 25.7 0.00 0.00 0.00 47 1012.5
20260831211546 25 133 4.8 22.5 0.00 0.00 0.00 49 1012.6
20260831210044 25 171 3.2 24.1 0.00 0.00 0.00 48 1012.7
20260831204540 24 92 4.8 17.7 0.00 0.00 0.00 50 1012.8
20260831203036 23 46 4.8 20.9 0.00 0.00 0.00 52 1012.8
20260831201538 22 46 6.4 24.1 0.00 0.00 0.00 53 1012.9
20260831200040 22 36 4.8 16.1 0.00 0.00 0.00 55 1013.1
20260831194527 22 17 8.0 20.9 0.00 0.00 0.00 56 1013.2
20260831193033 21 15 6.4 20.9 0.00 0.00 0.00 56 1013.6
20260831191527 21 19 6.4 22.5 0.00 0.00 0.00 58 1013.6
20260831190031 21 14 6.4 22.5 0.00 0.00 0.00 60 1013.6
20260831184521 20 14 8.0 20.9 0.00 0.00 0.00 62 1013.5
20260831183014 20 12 9.7 22.5 0.00 0.00 0.00 63 1013.6
20260831181513 19 13 4.8 24.1 0.00 0.00 0.00 64 1013.6
20260831180010 19 13 4.8 19.3 0.00 0.00 0.00 66 1013.5
20260831174510 18 12 8.0 16.1 0.00 0.00 0.00 66 1013.6
20260831173008 18 12 9.7 20.9 0.00 0.00 0.00 68 1013.7
20260831171507 17 12 4.8 19.3 0.00 0.00 0.00 70 1013.6
20260831170006 17 13 4.8 20.9 0.00 0.00 0.00 72 1013.4
20260831164504 16 13 4.8 19.3 0.00 0.00 0.00 75 1013.4
20260831163059 16 13 3.2 20.9 0.00 0.00 0.00 77 1013.3
20260831161556 15 12 8.0 17.7 0.00 0.00 0.00 78 1013.2
20260831160055 15 12 4.8 17.7 0.00 0.00 0.00 78 1013.2
20260831154606 15 12 4.8 19.3 0.00 0.00 0.00 79 1013.2
20260831153053 15 12 3.2 17.7 0.00 0.00 0.00 79 1013.1
20260831151550 15 13 0.0 19.3 0.00 0.00 0.00 79 1013.0
20260831150048 15 13 6.4 16.1 0.00 0.00 0.00 79 1012.8
20260831144548 15 15 4.8 16.1 0.00 0.00 0.00 79 1012.7
20260831143042 15 14 3.2 19.3 0.00 0.00 0.00 80 1012.6
20260831141539 14 156 4.8 16.1 0.00 0.00 0.00 79 1012.3
20260831140041 14 163 4.8 22.5 0.00 0.00 0.00 78 1012.1
20260831134535 14 150 6.4 17.7 0.00 0.00 0.00 78 1011.9
20260831133035 15 144 4.8 17.7 0.00 0.00 0.00 78 1011.8
20260831131541 15 209 3.2 22.5 0.00 0.00 0.00 78 1011.7
20260831130036 15 155 6.4 22.5 0.00 0.00 0.00 77 1011.5
20260831124531 15 133 4.8 19.3 0.00 0.00 0.00 77 1011.4
20260831123024 15 148 3.2 17.7 0.00 0.00 0.00 77 1011.3
20260831121523 15 83 1.6 12.9 0.00 0.00 0.00 77 1011.3
20260831120029 15 140 4.8 14.5 0.00 0.00 0.00 77 1011.4
20260831114517 15 177 4.8 12.9 0.00 0.00 0.00 76 1011.2
20260831113015 15 210 3.2 14.5 0.00 0.00 0.00 75 1011.2
20260831111517 15 160 4.8 19.3 0.00 0.00 0.00 74 1011.0
20260831110013 15 156 3.2 16.1 0.00 0.00 0.00 74 1011.2
20260831104510 16 163 4.8 14.5 0.00 0.00 0.00 73 1011.1
20260831103008 16 134 4.8 16.1 0.00 0.00 0.00 72 1011.2
20260831101507 16 151 3.2 16.1 0.00 0.00 0.00 72 1011.0
20260831100006 16 101 3.2 17.7 0.00 0.00 0.00 72 1011.0
20260831094504 16 150 3.2 16.1 0.00 0.00 0.00 71 1010.9
20260831093000 16 148 1.6 14.5 0.00 0.00 0.00 70 1010.9
20260831091600 17 189 3.2 14.5 0.00 0.00 0.00 69 1011.0
20260831090107 17 11 3.2 12.9 0.00 0.00 0.00 68 1011.0
20260831084557 17 11 3.2 14.5 0.00 0.00 0.00 67 1011.0
20260831083055 17 11 1.6 9.7 0.00 0.00 0.00 67 1011.0
20260831081557 17 12 1.6 12.9 0.00 0.00 0.00 66 1011.0
20260831080052 17 11 1.6 16.1 0.00 0.00 0.00 66 1011.1
20260831074547 18 11 3.2 14.5 0.00 0.00 0.00 66 1011.0
20260831073045 18 11 4.8 14.5 0.00 0.00 0.00 65 1010.9
20260831071546 18 11 4.8 12.9 0.00 0.00 0.00 64 1010.9
20260831070041 18 11 4.8 12.9 0.00 0.00 0.00 63 1010.9
20260831064541 19 11 6.4 14.5 0.00 0.00 0.00 63 1010.9
20260831063040 19 12 0.0 9.7 0.00 0.00 0.00 63 1011.0
20260831061539 19 11 3.2 9.7 0.00 0.00 0.00 63 1010.9
20260831060039 20 11 1.6 8.0 0.00 0.00 0.00 62 1010.8
20260831054538 20 12 3.2 9.7 0.00 0.00 0.00 61 1010.8
20260831053038 20 12 1.6 12.9 0.00 0.00 0.00 60 1010.8